Printer-friendly version

IAU Minor Planet Center

Minor Planet Center

MPEC 2006-D61 : 2006 DM63

The following Minor Planet Electronic Circular may be linked-to from your own Web pages, but must not otherwise be redistributed electronically.


Read MPEC 2006-D60 Read MPEC 2006-D62


M.P.E.C. 2006-D61                                Issued 2006 Feb. 28, 13:13 UT

     The Minor Planet Electronic Circulars contain information on unusual
         minor planets and routine data on comets.  They are published
   on behalf of Commission 20 of the International Astronomical Union by the
          Minor Planet Center, Smithsonian Astrophysical Observatory,
                          Cambridge, MA 02138, U.S.A.

                  Supported in part by the Brinson Foundation
                  Supported in part by the TABASGO Foundation
             Prepared using the Tamkin Foundation Computer Network

                              MPC@CFA.HARVARD.EDU
          URL http://cfa-www.harvard.edu/iau/mpc.html  ISSN 1523-6714

                                   2006 DM63

Observations:
     K06D63M* C2006 02 27.19803 07 08 02.18 +20 35 43.1          20.5 V ED061G96
     K06D63M  C2006 02 27.20865 07 07 56.20 +20 35 25.1          20.5 V ED061G96
     K06D63M  C2006 02 27.21432 07 07 53.04 +20 35 15.2          20.4 V ED061G96
     K06D63M  C2006 02 27.21991 07 07 49.90 +20 35 05.2          20.2 V ED061G96
     K06D63M  C2006 02 27.22901 07 07 44.99 +20 34 49.2                 ED061G96
     K06D63M  C2006 02 27.22990 07 07 44.55 +20 34 47.7          19.6 V ED061G96
     K06D63M  C2006 02 27.23078 07 07 44.04 +20 34 46.1          19.1 V ED061G96
     K06D63M  C2006 02 27.26574 07 07 25.52 +20 33 40.5          19.0 V ED061G96
     K06D63M  C2006 02 27.26663 07 07 25.04 +20 33 37.8          19.2 V ED061G96
     K06D63M  C2006 02 27.28324 07 07 16.74 +20 33 05.1          20.3 V ED061G96
     K06D63M  C2006 02 27.28412 07 07 16.32 +20 33 03.6          20.2 V ED061G96
     K06D63M  C2006 02 27.28501 07 07 15.88 +20 33 01.8          20.6 V ED061G96
     K06D63M FC2006 02 27.92014 07 04 17.27 +20 18 44.3                 ED061J95
     K06D63M FC2006 02 27.92191 07 04 16.70 +20 18 41.9          20.5 R ED061J95
     K06D63M  C2006 02 28.12588 07 03 40.51 +20 17 27.3          20.5 V ED061G96
     K06D63M  C2006 02 28.12676 07 03 40.21 +20 17 27.3          20.5 V ED061G96
     K06D63M  C2006 02 28.12765 07 03 39.87 +20 17 25.8          20.5 V ED061G96

Observer details:
G96 Mt. Lemmon Survey.  Observer R. Hill.  Measurers E. C. Beshore,
    E. J. Christensen, G. J. Garradd, A. R. Gibbs, A. D. Grauer, R. E. Hill,
    R. A. Kowalski, S. M. Larson, R. H. McNaught.  1.5-m reflector + CCD.
J95 Great Shefford.  Observer P. Birtwhistle.  0.40-m f/6.0 Schmidt-Cassegrain
    + CCD.

Orbital elements:
2006 DM63                                                Earth MOID = 0.0007 AU
Epoch 2006 Mar. 6.0 TT = JDT 2453800.5                  MPC
M 150.80680              (2000.0)            P               Q
n   1.69000054     Peri.   17.48533     +0.99428561     +0.10605162
a   0.6980365      Node   336.41666     -0.10123015     +0.90033412
e   0.4908657      Incl.    1.74946     -0.03389082     +0.42208000
P   0.58           H   26.7           G   0.15           U   9
Residuals in seconds of arc
060227 G96  0.2+  0.1-    060227 G96  0.6+  0.1+    060227 J95  0.2-  0.3+
060227 G96  0.1+  0.1-    060227 G96  0.5-  0.6+    060227 J95  0.5+  0.0
060227 G96  0.1+  0.1-    060227 G96  0.9-  0.4-    060228 G96  0.3-  0.4-
060227 G96  0.6-  0.3-    060227 G96  0.3-  0.2-    060228 G96  0.0   0.2+
060227 G96  0.4+  0.0     060227 G96  0.1-  0.1+    060228 G96  0.3-  0.6-
060227 G96  1.0+  0.1+    060227 G96  0.2-  0.1+

Ephemeris:
2006 DM63                a,e,i = 0.70, 0.49, 2                   q = 0.3554
Date    TT    R. A. (2000) Decl.     Delta      r     Elong.  Phase     V
2006 02 14    18 51.44   -19 20.0    0.0597   0.945    43.0   134.5    26.6
2006 02 15    18 50.38   -19 17.2    0.0538   0.950    44.3   133.4    26.3
2006 02 16    18 49.19   -19 13.8    0.0479   0.955    45.6   132.4    26.0
2006 02 17    18 47.81   -19 09.3    0.0420   0.960    46.9   131.3    25.6
2006 02 18    18 46.13   -19 03.2    0.0361   0.965    48.3   130.1    25.1
2006 02 19    18 43.96   -18 54.6    0.0303   0.969    49.8   128.8    24.6
2006 02 20    18 40.89   -18 41.7    0.0244   0.974    51.5   127.3    24.0
2006 02 21    18 36.05   -18 20.1    0.0185   0.978    53.7   125.4    23.3
2006 02 22    18 26.92   -17 36.9    0.0127   0.982    56.9   122.5    22.2
2006 02 23    18 03.47   -15 36.4    0.00692  0.986    63.6   116.1    20.4
2006 02 24    14 53.40   +05 37.9    0.00171  0.990   114.2    65.7    15.2
2006 02 25    07 57.91   +23 20.8    0.00540  0.994   140.7    39.1    16.9
2006 02 26    07 20.87   +21 25.6    0.0112   0.998   131.6    47.9    18.7
2006 02 27    07 09.49   +20 42.8    0.0170   1.001   128.0    51.2    19.8
2006 02 28    07 04.07   +20 20.8    0.0229   1.004   125.8    53.1    20.5
2006 03 01    07 00.98   +20 07.5    0.0288   1.007   124.1    54.6    21.0
2006 03 02    06 59.03   +19 58.4    0.0347   1.010   122.6    55.7    21.4
2006 03 03    06 57.75   +19 51.8    0.0406   1.013   121.4    56.7    21.8
2006 03 04    06 56.89   +19 46.8    0.0465   1.016   120.2    57.6    22.1
2006 03 05    06 56.31   +19 42.8    0.0524   1.018   119.0    58.4    22.4
2006 03 06    06 55.94   +19 39.5    0.0583   1.021   117.9    59.2    22.7

Timothy B. Spahr             (C) Copyright 2006 MPC           M.P.E.C. 2006-D61

Read MPEC 2006-D60 Read MPEC 2006-D62


Our Web policy. Index to the CBAT/MPC/ICQ pages.


Valid HTML 4.01!